TimeWEST,TemperatureF,Dew PointF,Humidity,Sea Level PressureIn,VisibilityMPH,Wind Direction,Wind SpeedMPH,Gust SpeedMPH,PrecipitationIn,Events,Conditions,WindDirDegrees,DateUTC
12:00 AM,51.8,48.2,88,29.80,3.7,West,9.2,-,N/A,Rain,Rain,280,2013-05-15 23:00:00
1:00 AM,51,49,91,29.80,3,NW,4.6,,,Rain,Light Rain,320,2013-05-16 00:00:00
1:00 AM,50.0,50.0,100,29.80,3.1,NW,10.4,-,N/A,Rain,Rain,320,2013-05-16 00:00:00
2:00 AM,51.8,50.0,94,29.80,3.1,NW,9.2,-,N/A,Rain,Rain,320,2013-05-16 01:00:00
3:00 AM,50.0,46.4,87,29.80,3.1,West,6.9,-,N/A,Rain,Rain,280,2013-05-16 02:00:00
4:00 AM,48,47,95,29.79,3,West,6.9,,,Rain,Light Rain,280,2013-05-16 03:00:00
4:00 AM,48.2,46.4,93,29.80,3.1,West,6.9,-,N/A,Rain,Rain,280,2013-05-16 03:00:00
5:00 AM,46.4,46.4,100,29.80,3.1,West,9.2,-,N/A,Rain,Light Rain,280,2013-05-16 04:00:00
6:00 AM,46.4,44.6,93,29.80,3.1,West,6.9,-,N/A,Rain,Light Rain,260,2013-05-16 05:00:00
7:00 AM,48,46,89,29.83,3,WSW,5.8,,,Rain,Light Rain,240,2013-05-16 06:00:00
7:00 AM,48.2,46.4,93,29.80,3.1,WSW,5.8,-,N/A,,Mostly Cloudy,240,2013-05-16 06:00:00
8:00 AM,48.2,46.4,93,29.83,2.5,WSW,4.6,-,N/A,Rain,Light Rain,250,2013-05-16 07:00:00
9:00 AM,50.0,46.4,87,29.86,3.1,SW,5.8,-,N/A,,Scattered Clouds,220,2013-05-16 08:00:00
10:00 AM,52,46,74,29.86,3,WSW,9.2,,,,Mostly Cloudy,250,2013-05-16 09:00:00
10:00 AM,51.8,46.4,82,29.86,3.1,WSW,9.2,-,N/A,,Mostly Cloudy,250,2013-05-16 09:00:00
11:00 AM,55.4,44.6,67,29.86,3.1,WSW,6.9,-,N/A,,Mostly Cloudy,240,2013-05-16 10:00:00
12:00 PM,57.2,44.6,63,29.89,3.7,WSW,12.7,-,N/A,,Mostly Cloudy,240,2013-05-16 11:00:00
1:00 PM,59,44,46,29.86,5,West,10.4,,,,Mostly Cloudy,280,2013-05-16 12:00:00
1:00 PM,59.0,44.6,59,29.89,5.0,West,10.4,-,N/A,,Mostly Cloudy,280,2013-05-16 12:00:00
2:00 PM,59.0,44.6,59,29.89,5.0,West,11.5,-,N/A,,Mostly Cloudy,280,2013-05-16 13:00:00
3:00 PM,60.8,42.8,52,29.89,5.0,West,13.8,-,N/A,,Mostly Cloudy,260,2013-05-16 14:00:00
4:00 PM,60,41,38,29.85,5,West,13.8,,,,Mostly Cloudy,260,2013-05-16 15:00:00
4:00 PM,60.8,41.0,48,29.86,5.0,West,13.8,-,N/A,,Mostly Cloudy,260,2013-05-16 15:00:00
5:00 PM,60.8,42.8,52,29.86,5.0,West,15.0,-,N/A,,Mostly Cloudy,270,2013-05-16 16:00:00
6:00 PM,60.8,42.8,52,29.86,5.0,WNW,11.5,-,N/A,,Mostly Cloudy,290,2013-05-16 17:00:00
7:00 PM,58,41,41,29.85,5,WNW,12.7,,,,Scattered Clouds,300,2013-05-16 18:00:00
7:00 PM,59.0,41.0,51,29.86,5.0,WNW,12.7,-,N/A,,Scattered Clouds,300,2013-05-16 18:00:00
8:00 PM,55.4,41.0,58,29.89,5.0,NW,8.1,-,N/A,,Scattered Clouds,310,2013-05-16 19:00:00
9:00 PM,55.4,41.0,58,29.89,5.0,WNW,6.9,-,N/A,,Scattered Clouds,290,2013-05-16 20:00:00
10:00 PM,53,43,59,29.91,5,West,3.5,,,,Mostly Cloudy,280,2013-05-16 21:00:00
10:00 PM,53.6,42.8,67,29.92,5.0,West,4.6,-,N/A,,Mostly Cloudy,280,2013-05-16 21:00:00
11:00 PM,53.6,42.8,67,29.92,5.0,West,4.6,-,N/A,,Mostly Cloudy,280,2013-05-16 22:00:00